H1 CPF 2 NER 2022 2 13 9 044 01 glonass137 H2 1705501 9137 42939 2022 2 13 0 0 0 2022 2 16 23 45 0 900 1 1 0 0 0 1 H9 10 0 59623 0.00000 0 -9925602.522 21286017.612 9970605.073 10 0 59623 900.00000 0 -9548874.467 19933293.740 12748036.410 10 0 59623 1800.00000 0 -9228304.142 18233116.105 15278043.765 10 0 59623 2700.00000 0 -9012037.314 16221774.533 17511537.148 10 0 59623 3600.00000 0 -8941173.881 13946124.460 19405180.775 10 0 59623 4500.00000 0 -9047872.678 11461827.519 20922230.347 10 0 59623 5400.00000 0 -9353846.078 8831236.681 22033242.715 10 0 59623 6300.00000 0 -9869307.992 6121013.195 22716644.694 10 0 59623 7200.00000 0 -10592419.838 3399573.678 22959150.428 10 0 59623 8100.00000 0 -11509258.306 734472.406 22756019.566 10 0 59623 9000.00000 0 -12594306.985 -1810173.443 22111151.372 10 0 59623 9900.00000 0 -13811452.044 -4176109.599 21037012.821 10 0 59623 10800.00000 0 -15115441.168 -6313121.811 19554401.768 10 0 59623 11700.00000 0 -16453745.503 -8180874.670 17692049.190 10 0 59623 12600.00000 0 -17768747.317 -9750336.404 15486067.593 10 0 59623 13500.00000 0 -19000162.264 -11004731.054 12979255.515 10 0 59623 14400.00000 0 -20087594.950 -11939979.052 10220270.924 10 0 59623 15300.00000 0 -20973120.507 -12564608.401 7262689.067 10 0 59623 16200.00000 0 -21603783.424 -12899140.942 4163962.702 10 0 59623 17100.00000 0 -21933907.997 -12974980.255 984304.807 10 0 59623 18000.00000 0 -21927122.397 -12832848.785 -2214484.255 10 0 59623 18900.00000 0 -21558010.199 -12520840.935 -5370221.915 10 0 59623 19800.00000 0 -20813318.873 -12092175.243 -8421556.965 10 0 59623 20700.00000 0 -19692673.354 -11602741.487 -11309167.101 10 0 59623 21600.00000 0 -18208763.775 -11108547.326 -13976916.598 10 0 59623 22500.00000 0 -16386998.646 -10663173.236 -16372951.036 10 0 59623 23400.00000 0 -14264637.368 -10315344.053 -18450707.357 10 0 59623 24300.00000 0 -11889437.890 -10106720.288 -20169819.499 10 0 59623 25200.00000 0 -9317875.583 -10070002.940 -21496902.083 10 0 59623 26100.00000 0 -6613007.378 -10227432.036 -22406197.117 10 0 59623 27000.00000 0 -3842069.819 -10589742.418 -22880071.604 10 0 59623 27900.00000 0 -1073910.581 -11155620.878 -22909356.804 10 0 59623 28800.00000 0 1623640.158 -11911687.594 -22493523.013 10 0 59623 29700.00000 0 4186349.855 -12833002.759 -21640686.828 10 0 59623 30600.00000 0 6556008.850 -13884077.282 -20367450.965 10 0 59623 31500.00000 0 8682600.695 -15020345.188 -18698579.880 10 0 59623 32400.00000 0 10526128.401 -16190036.104 -16666517.413 10 0 59623 33300.00000 0 12058021.704 -17336369.257 -14310755.710 10 0 59623 34200.00000 0 13262067.888 -18399976.910 -11677067.496 10 0 59623 35100.00000 0 14134828.645 -19321455.376 -8816616.476 10 0 59623 36000.00000 0 14685526.888 -20043936.294 -5784962.972 10 0 59623 36900.00000 0 14935409.618 -20515569.800 -2640984.173 10 0 59623 37800.00000 0 14916614.874 -20691814.877 554269.950 10 0 59623 38700.00000 0 14670591.691 -20537440.153 3738762.701 10 0 59623 39600.00000 0 14246140.614 -20028150.542 6850675.349 10 0 59623 40500.00000 0 13697158.287 -19151770.871 9829606.823 10 0 59623 41400.00000 0 13080181.960 -17908936.197 12617745.024 10 0 59623 42300.00000 0 12451837.952 -16313259.310 15160986.829 10 0 59623 43200.00000 0 11866302.027 -14390967.728 17409985.239 10 0 59623 44100.00000 0 11372878.874 -12180024.673 19321103.596 10 0 59623 45000.00000 0 11013802.680 -9728770.034 20857258.714 10 0 59623 45900.00000 0 10822351.341 -7094137.111 21988637.091 10 0 59623 46800.00000 0 10821353.604 -4339518.460 22693270.873 10 0 59623 47700.00000 0 11022151.880 -1532368.669 22957462.795 10 0 59623 48600.00000 0 11424064.445 1258357.424 22776052.255 10 0 59623 49500.00000 0 12014369.915 3964825.795 22152517.483 10 0 59623 50400.00000 0 12768815.035 6522895.756 21098911.720 10 0 59623 51300.00000 0 13652625.108 8874538.151 19635634.349 10 0 59623 52200.00000 0 14621975.248 10969999.716 17791040.835 10 0 59623 53100.00000 0 15625861.307 12769624.316 15600898.411 10 0 59623 54000.00000 0 16608292.435 14245256.000 13107697.327 10 0 59623 54900.00000 0 17510713.432 15381165.981 10359830.307 10 0 59623 55800.00000 0 18274555.068 16174465.362 7410655.644 10 0 59623 56700.00000 0 18843804.857 16634986.954 4317461.771 10 0 59623 57600.00000 0 19167489.472 16784641.768 1140353.289 10 0 59623 58500.00000 0 19201963.480 16656277.902 -2058919.635 10 0 59623 59400.00000 0 18912906.950 16292090.629 -5218165.382 10 0 59623 60300.00000 0 18276946.650 15741651.534 -8275964.551 10 0 59623 61200.00000 0 17282831.420 15059640.708 -11172868.823 10 0 59623 62100.00000 0 15932111.071 14303378.586 -13852561.115 10 0 59623 63000.00000 0 14239289.204 13530262.458 -16262953.912 10 0 59623 63900.00000 0 12231442.611 12795216.567 -18357203.966 10 0 59623 64800.00000 0 9947322.368 12148263.967 -20094623.514 10 0 59623 65700.00000 0 7435973.494 11632322.921 -21441470.339 10 0 59623 66600.00000 0 4754930.297 11281320.907 -22371601.523 10 0 59623 67500.00000 0 1968062.084 11118705.713 -22866978.597 10 0 59623 68400.00000 0 -856841.610 11156416.163 -22918014.717 10 0 59623 69300.00000 0 -3650646.321 11394355.595 -22523757.548 10 0 59623 70200.00000 0 -6345502.084 11820389.989 -21691904.695 10 0 59623 71100.00000 0 -8877418.469 12410870.593 -20438651.612 10 0 59623 72000.00000 0 -11188678.932 13131658.901 -18788375.071 10 0 59623 72900.00000 0 -13229995.036 13939610.688 -16773158.304 10 0 59623 73800.00000 0 -14962311.914 14784456.613 -14432166.891 10 0 59623 74700.00000 0 -16358190.741 15611000.102 -11810887.382 10 0 59623 75600.00000 0 -17402711.719 16361539.900 -8960243.249 10 0 59623 76500.00000 0 -18093861.026 16978415.062 -5935605.190 10 0 59623 77400.00000 0 -18442386.704 17406564.951 -2795715.055 10 0 59623 78300.00000 0 -18471130.758 17595996.003 398455.633 10 0 59623 79200.00000 0 -18213866.671 17504050.938 3584890.267 10 0 59623 80100.00000 0 -17713692.266 17097384.302 6701731.496 10 0 59623 81000.00000 0 -17021046.519 16353560.612 9688481.754 10 0 59623 81900.00000 0 -16191434.574 15262207.212 12487176.507 10 0 59623 82800.00000 0 -15282957.370 13825672.716 15043507.290 10 0 59623 83700.00000 0 -14353750.273 12059162.662 17307872.883 10 0 59623 84600.00000 0 -13459438.704 9990345.774 19236338.481 10 0 59623 85500.00000 0 -12650717.770 7658446.470 20791484.600 10 0 59624 0.00000 0 -11971157.588 5112860.675 21943129.701 10 0 59624 900.00000 0 -11455325.887 2411350.121 22668913.590 10 0 59624 1800.00000 0 -11127307.376 -382107.333 22954729.271 10 0 59624 2700.00000 0 -10999680.567 -3199727.787 22794997.304 10 0 59624 3600.00000 0 -11072995.831 -5972489.495 22192775.871 10 0 59624 4500.00000 0 -11335776.203 -8632754.970 21159705.009 10 0 59624 5400.00000 0 -11765041.137 -11116838.960 19715785.668 10 0 59624 6300.00000 0 -12327331.483 -13367416.613 17888997.341 10 0 59624 7200.00000 0 -12980192.961 -15335672.419 15714761.049 10 0 59624 8100.00000 0 -13674056.084 -16983101.160 13235257.352 10 0 59624 9000.00000 0 -14354433.646 -18282886.376 10498611.897 10 0 59624 9900.00000 0 -14964343.295 -19220799.128 7557963.830 10 0 59624 10800.00000 0 -15446852.903 -19795579.968 4470434.754 10 0 59624 11700.00000 0 -15747640.957 -20018788.507 1296018.128 10 0 59624 12600.00000 0 -15817463.238 -19914127.361 -1903589.059 10 0 59624 13500.00000 0 -15614420.754 -19516269.519 -5066189.295 10 0 59624 14400.00000 0 -15105932.133 -18869239.137 -8130298.286 10 0 59624 15300.00000 0 -14270326.059 -18024414.726 -11036345.081 10 0 59624 16200.00000 0 -13097985.416 -17038239.690 -13727834.647 10 0 59624 17100.00000 0 -11591993.696 -15969737.505 -16152449.716 10 0 59624 18000.00000 0 -9768255.416 -14877936.964 -18263070.030 10 0 59624 18900.00000 0 -7655084.409 -13819316.537 -20018689.019 10 0 59624 19800.00000 0 -5292276.275 -12845375.820 -21385210.143 10 0 59624 20700.00000 0 -2729703.016 -12000436.459 -22336107.585 10 0 59624 21600.00000 0 -25487.737 -11319764.943 -22852938.901 10 0 59624 22500.00000 0 2756165.234 -10828095.921 -22925700.083 10 0 59624 23400.00000 0 5547395.070 -10538617.677 -22553016.560 10 0 59624 24300.00000 0 8279263.877 -10452461.850 -21742166.844 10 0 59624 25200.00000 0 10884384.323 -10558718.269 -20508938.565 10 0 59624 26100.00000 0 13299486.891 -10834973.693 -18877319.818 10 0 59624 27000.00000 0 15467820.802 -11248351.308 -16879031.826 10 0 59624 27900.00000 0 17341289.567 -11757006.749 -14552911.807 10 0 59624 28800.00000 0 18882232.982 -12312017.268 -11944157.928 10 0 59624 29700.00000 0 20064782.209 -12859584.091 -9103450.831 10 0 59624 30600.00000 0 20875732.338 -13343454.764 -6085968.626 10 0 59624 31500.00000 0 21314896.853 -13707462.977 -2950314.561 10 0 59624 32400.00000 0 21394930.237 -13898078.281 242621.768 10 0 59624 33300.00000 0 21140627.148 -13866857.685 3430847.400 10 0 59624 34200.00000 0 20587728.564 -13572695.197 6552469.904 10 0 59624 35100.00000 0 19781285.949 -12983773.840 9546898.599 10 0 59624 36000.00000 0 18773653.008 -12079137.282 12356019.639 10 0 59624 36900.00000 0 17622190.030 -10849814.167 14925321.991 10 0 59624 37800.00000 0 16386777.793 -9299447.122 17204952.588 10 0 59624 38700.00000 0 15127245.640 -7444399.047 19150680.426 10 0 59624 39600.00000 0 13900821.812 -5313331.315 20724751.242 10 0 59624 40500.00000 0 12759712.783 -2946270.357 21896616.705 10 0 59624 41400.00000 0 11748912.840 -393200.351 22643524.527 10 0 59624 42300.00000 0 10904335.281 2287760.544 22950958.462 10 0 59624 43200.00000 0 10251343.093 5032525.846 22812920.086 10 0 59624 44100.00000 0 9803740.211 7773459.617 22232047.006 10 0 59624 45000.00000 0 9563265.333 10441949.163 21219565.172 10 0 59624 45900.00000 0 9519609.220 12971025.898 19795075.907 10 0 59624 46800.00000 0 9650954.664 15297926.420 17986181.258 10 0 59624 47700.00000 0 9925016.400 17366488.047 15827954.306 10 0 59624 48600.00000 0 10300537.294 19129279.744 13362263.963 10 0 59624 49500.00000 0 10729177.823 20549380.058 10636966.659 10 0 59624 50400.00000 0 11157719.189 21601728.079 7704980.063 10 0 59624 51300.00000 0 11530486.920 22273991.221 4623256.465 10 0 59624 52200.00000 0 11791892.215 22566913.650 1451675.595 10 0 59624 53100.00000 0 11888983.093 22494130.989 -1748121.389 10 0 59624 54000.00000 0 11773896.654 22081459.427 -4913933.716 10 0 59624 54900.00000 0 11406107.826 21365689.549 -7984214.747 10 0 59624 55800.00000 0 10754378.432 20392936.199 -10899273.296 10 0 59624 56700.00000 0 9798323.059 19216614.464 -13602438.570 10 0 59624 57600.00000 0 8529524.413 17895127.640 -16041165.510 10 0 59624 58500.00000 0 6952149.978 16489365.122 -18168058.572 10 0 59624 59400.00000 0 5083042.871 15060116.021 -19941793.883 10 0 59624 60300.00000 0 2951281.946 13665507.579 -21327921.865 10 0 59624 61200.00000 0 597228.623 12358576.193 -22299534.903 10 0 59624 62100.00000 0 -1928900.619 11185072.920 -22837787.473 10 0 59624 63000.00000 0 -4568877.406 10181595.216 -22932259.066 10 0 59624 63900.00000 0 -7258644.131 9374122.766 -22581153.272 10 0 59624 64800.00000 0 -9930746.034 8777018.062 -21791329.573 10 0 59624 65700.00000 0 -12516912.216 8392532.831 -20578167.467 10 0 59624 66600.00000 0 -14950678.833 8210840.144 -18965265.697 10 0 59624 67500.00000 0 -17169946.073 8210589.965 -16983982.421 10 0 59624 68400.00000 0 -19119363.148 8359963.957 -14672825.125 10 0 59624 69300.00000 0 -20752442.566 8618184.385 -12076701.969 10 0 59624 70200.00000 0 -22033316.235 8937412.892 -9246048.944 10 0 59624 71100.00000 0 -22938060.793 9264958.482 -6235849.634 10 0 59624 72000.00000 0 -23455537.428 9545700.986 -3104566.644 10 0 59624 72900.00000 0 -23587711.836 9724627.176 86994.466 10 0 59624 73800.00000 0 -23349441.699 9749371.880 3276866.583 10 0 59624 74700.00000 0 -22767741.332 9572656.244 6403124.472 10 0 59624 75600.00000 0 -21880555.157 9154519.632 9405086.699 10 0 59624 76500.00000 0 -20735092.156 8464250.332 12224492.546 10 0 59624 77400.00000 0 -19385791.797 7481933.034 14806630.887 10 0 59624 78300.00000 0 -17892007.211 6199547.136 17101399.268 10 0 59624 79200.00000 0 -16315503.040 4621568.809 19064272.867 10 0 59624 80100.00000 0 -14717872.860 2765050.598 20657164.857 10 0 59624 81000.00000 0 -13157984.187 659174.087 21849162.025 10 0 59624 81900.00000 0 -11689557.634 -1655706.960 22617121.903 10 0 59624 82800.00000 0 -10358981.003 -4129494.297 22946120.269 10 0 59624 83700.00000 0 -9203449.125 -6704185.661 22829740.750 10 0 59624 84600.00000 0 -8249506.560 -9316052.804 22270201.066 10 0 59624 85500.00000 0 -7512053.545 -11898067.718 21278313.394 10 0 59625 0.00000 0 -6993856.229 -14382477.226 19873279.522 10 0 59625 900.00000 0 -6685581.008 -16703421.198 18082323.372 10 0 59625 1800.00000 0 -6566351.824 -18799482.915 15940169.404 10 0 59625 2700.00000 0 -6604805.761 -20616070.417 13488373.747 10 0 59625 3600.00000 0 -6760603.068 -22107526.593 10774522.146 10 0 59625 4500.00000 0 -6986327.403 -23238881.357 7851309.036 10 0 59625 5400.00000 0 -7229695.896 -23987172.537 4775515.384 10 0 59625 6300.00000 0 -7435985.212 -24342280.096 1606904.938 10 0 59625 7200.00000 0 -7550570.511 -24307238.689 -1592939.430 10 0 59625 8100.00000 0 -7521469.112 -23898015.461 -4761816.347 10 0 59625 9000.00000 0 -7301780.311 -23142762.584 -7838119.674 10 0 59625 9900.00000 0 -6851917.107 -22080576.219 -10762040.983 10 0 59625 10800.00000 0 -6141534.311 -20759814.500 -13476736.830 10 0 59625 11700.00000 0 -5151070.356 -19236045.721 -15929437.500 10 0 59625 12600.00000 0 -3872836.602 -17569713.522 -18072475.238 10 0 59625 13500.00000 0 -2311607.034 -15823617.565 -19864211.765 10 0 59625 14400.00000 0 -484682.406 -14060315.812 -21269847.083 10 0 59625 15300.00000 0 1578574.889 -12339557.522 -22262094.021 10 0 59625 16200.00000 0 3837716.771 -10715854.469 -22821705.772 10 0 59625 17100.00000 0 6242656.388 -9236291.758 -22937846.652 10 0 59625 18000.00000 0 8735526.369 -7938669.352 -22608299.256 10 0 59625 18900.00000 0 11252871.767 -6850051.281 -21839504.426 10 0 59625 19800.00000 0 13728087.058 -5985782.277 -20646433.474 10 0 59625 20700.00000 0 16093996.295 -5349011.989 -19052295.307 10 0 59625 21600.00000 0 18285469.605 -4930745.526 -17088084.112 10 0 59625 22500.00000 0 20241967.617 -4710417.073 -14791976.283 10 0 59625 23400.00000 0 21909908.169 -4656961.394 -12208588.149 10 0 59625 24300.00000 0 23244757.103 -4730337.119 -9388108.764 10 0 59625 25200.00000 0 24212756.276 -4883436.711 -6385324.448 10 0 59625 26100.00000 0 24792217.003 -5064301.784 -3258554.051 10 0 59625 27000.00000 0 24974325.290 -5218549.493 -68515.689 10 0 59625 27900.00000 0 24763425.662 -5291906.850 3122852.940 10 0 59625 28800.00000 0 24176772.188 -5232745.291 6253597.400 10 0 59625 29700.00000 0 23243757.704 -4994507.808 9262949.013 10 0 59625 30600.00000 0 22004654.021 -4537925.509 12092503.482 10 0 59625 31500.00000 0 20508916.422 -3832929.513 14687352.590 10 0 59625 32400.00000 0 18813123.801 -2860176.818 16997147.141 10 0 59625 33300.00000 0 16978640.901 -1612125.178 18977070.755 10 0 59625 34200.00000 0 15069100.523 -93610.889 20588705.908 10 0 59625 35100.00000 0 13147810.777 1678095.754 21800775.970 10 0 59625 36000.00000 0 11275195.317 3673760.895 22589749.355 10 0 59625 36900.00000 0 9506372.945 5853164.976 22940294.514 10 0 59625 37800.00000 0 7888976.892 8166548.619 22845577.364 10 0 59625 38700.00000 0 6461304.027 10556467.666 22307395.543 10 0 59625 39600.00000 0 5250870.471 12959981.384 21336146.853 10 0 59625 40500.00000 0 4273433.184 15311084.026 19950632.244 10 0 59625 41400.00000 0 3532517.658 17543279.613 18177696.631 10 0 59625 42300.00000 0 3019470.908 19592193.469 16051713.906 10 0 59625 43200.00000 0 2714036.928 21398112.309 13613925.395 10 0 59625 44100.00000 0 2585429.927 22908347.244 10911643.867 10 0 59625 45000.00000 0 2593859.752 24079321.019 7997338.015 10 0 59625 45900.00000 0 2692444.659 24878292.117 4927614.784 10 0 59625 46800.00000 0 2829430.183 25284643.293 1762119.105 10 0 59625 47700.00000 0 2950619.665 25290680.177 -1437627.345 10 0 59625 48600.00000 0 3001912.869 24901906.229 -4609425.508 10 0 59625 49500.00000 0 2931844.361 24136762.276 -7691612.573 10 0 59625 50400.00000 0 2694013.218 23025841.567 -10624265.567 10 0 59625 51300.00000 0 2249300.198 21610613.440 -13350370.852 10 0 59625 52200.00000 0 1567777.459 19941709.380 -15816936.272 10 0 59625 53100.00000 0 630229.077 18076843.824 -17976023.785 10 0 59625 54000.00000 0 -570782.938 16078457.201 -19785682.357 10 0 59625 54900.00000 0 -2030353.106 14011180.282 -21210762.949 10 0 59625 55800.00000 0 -3731192.203 11939226.179 -22223599.928 10 0 59625 56700.00000 0 -5644114.959 9923819.046 -22804546.029 10 0 59625 57600.00000 0 -7729036.206 8020766.671 -22942350.904 10 0 59625 58500.00000 0 -9936434.655 6278277.886 -22634376.322 10 0 59625 59400.00000 0 -12209223.914 4735115.169 -21886644.267 10 0 59625 60300.00000 0 -14484953.466 3419158.586 -20713717.246 10 0 59625 61200.00000 0 -16698248.314 2346439.981 -19138413.288 10 0 59625 62100.00000 0 -18783386.171 1520686.494 -17191361.194 10 0 59625 63000.00000 0 -20676905.187 933391.164 -14910404.522 10 0 59625 63900.00000 0 -22320133.717 564406.372 -12339865.783 10 0 59625 64800.00000 0 -23661536.851 383033.863 -9529684.935 10 0 59625 65700.00000 0 -24658781.905 349564.320 -6534448.776 10 0 59625 66600.00000 0 -25280436.684 417200.565 -3412330.083 10 0 59625 67500.00000 0 -25507229.640 534282.289 -223957.176 10 0 59625 68400.00000 0 -25332819.400 646717.552 2968764.031 10 0 59625 69300.00000 0 -24764041.605 700517.593 6103852.301 10 0 59625 70200.00000 0 -23820623.027 644327.198 9120454.131 10 0 59625 71100.00000 0 -22534375.155 431843.087 11960024.047 10 0 59625 72000.00000 0 -20947901.320 24017.662 14567459.104 10 0 59625 72900.00000 0 -19112871.636 -609045.447 16892165.625 10 0 59625 73800.00000 0 -17087937.987 -1486584.608 18889037.750 10 0 59625 74700.00000 0 -14936376.170 -2616126.229 20519329.099 10 0 59625 75600.00000 0 -12723553.395 -3992928.831 21751401.163 10 0 59625 76500.00000 0 -10514326.340 -5599949.433 22561334.434 10 0 59625 77400.00000 0 -8370477.735 -7408334.782 22933390.884 10 0 59625 78300.00000 0 -6348297.470 -9378418.148 22860319.217 10 0 59625 79200.00000 0 -4496408.208 -11461181.399 22343497.152 10 0 59625 80100.00000 0 -2853925.200 -13600122.625 21392907.977 10 0 59625 81000.00000 0 -1449026.133 -15733452.686 20026951.522 10 0 59625 81900.00000 0 -297989.763 -17796530.260 18272092.747 10 0 59625 82800.00000 0 595257.245 -19724434.615 16162354.123 10 0 59625 83700.00000 0 1239067.102 -21454569.434 13738660.948 10 0 59625 84600.00000 0 1653475.104 -22929189.268 11048051.545 10 0 59625 85500.00000 0 1869106.873 -24097743.006 8142767.162 10 0 59626 0.00000 0 1925635.346 -24918936.027 5079239.083 10 0 59626 900.00000 0 1869853.215 -25362424.632 1916990.773 10 0 59626 1800.00000 0 1753442.885 -25410070.125 -1282519.279 10 0 59626 2700.00000 0 1630539.142 -25056700.847 -4457096.740 10 0 59626 3600.00000 0 1555188.405 -24310348.494 -7545024.678 10 0 59626 4500.00000 0 1578813.128 -23191948.901 -10486268.219 10 0 59626 5400.00000 0 1747789.647 -21734519.571 -13223646.274 10 0 59626 6300.00000 0 2101243.004 -19981848.348 -15703946.995 10 0 59626 7200.00000 0 2669152.959 -17986748.354 -17878964.761 10 0 59626 8100.00000 0 3470852.183 -15808952.422 -19706438.330 10 0 59626 9000.00000 0 4513980.941 -13512735.302 -21150871.935 10 0 59626 9900.00000 0 5793943.130 -11164363.202 -22184223.473 10 0 59626 10800.00000 0 7293887.444 -8829477.113 -22786446.818 10 0 59626 11700.00000 0 8985215.288 -6570518.862 -22945878.142 10 0 59626 12600.00000 0 10828594.855 -4444306.839 -22659459.151 10 0 59626 13500.00000 0 12775439.692 -2499861.712 -21932793.324 10 0 59626 14400.00000 0 14769790.575 -776571.851 -20780034.319 10 0 59626 15300.00000 0 16750522.593 697226.123 -19223608.878 10 0 59626 16200.00000 0 18653785.754 1905193.725 -17293779.610 10 0 59626 17100.00000 0 20415577.552 2843425.810 -15028056.053 10 0 59626 18000.00000 0 21974340.251 3520357.768 -12470465.294 10 0 59626 18900.00000 0 23273474.480 3956150.095 -9670696.184 10 0 59626 19800.00000 0 24263664.130 4181577.578 -6683133.578 10 0 59626 20700.00000 0 24904915.193 4236471.070 -3565801.416 10 0 59626 21600.00000 0 25168223.186 4167778.719 -379235.183 10 0 59626 22500.00000 0 25036799.219 4027329.423 2814694.209 10 0 59626 23400.00000 0 24506803.311 3869393.821 5953981.997 10 0 59626 24300.00000 0 23587554.164 3748146.592 8977693.068 10 0 59626 25200.00000 0 22301206.612 3715137.902 11827143.863 10 0 59626 26100.00000 0 20681910.234 3816881.318 14447039.574 10 0 59626 27000.00000 0 18774484.278 4092660.493 16786544.642 10 0 59626 27900.00000 0 16632664.171 4572647.629 18800266.048 10 0 59626 28800.00000 0 14316992.660 5276413.432 20449130.557 10 0 59626 29700.00000 0 11892443.192 6211891.897 21701139.464 10 0 59626 30600.00000 0 9425874.052 7374844.130 22531986.689 10 0 59626 31500.00000 0 6983418.705 8748844.564 22925528.699 10 0 59626 32400.00000 0 4627920.074 10305791.161 22874097.552 10 0 59626 33300.00000 0 2416514.637 12006919.431 22378651.204 10 0 59626 34200.00000 0 398465.918 13804279.006 21448758.111 10 0 59626 35100.00000 0 -1386663.428 15642612.291 20102416.220 10 0 59626 36000.00000 0 -2910425.787 17461557.805 18365709.320 10 0 59626 36900.00000 0 -4156430.859 19198087.038 16272306.845 10 0 59626 37800.00000 0 -5120777.580 20789073.645 13862816.091 10 0 59626 38700.00000 0 -5811958.410 22173887.911 11183998.670 10 0 59626 39600.00000 0 -6250240.722 23296907.892 8287865.869 10 0 59626 40500.00000 0 -6466552.060 24109841.798 5230670.055 10 0 59626 41400.00000 0 -6500916.947 24573763.743 2071811.489 10 0 59626 42300.00000 0 -6400511.918 24660776.726 -1127318.012 10 0 59626 43200.00000 0 -6217421.793 24355232.260 -4304531.808 10 0 59626 44100.00000 0 -6006192.910 23654454.639 -7398061.789 10 0 59626 45000.00000 0 -5821287.766 22568938.717 -10347764.011 10 0 59626 45900.00000 0 -5714549.730 21122012.350 -13096292.593 10 0 59626 46800.00000 0 -5732786.033 19348977.209 -15590218.418 10 0 59626 47700.00000 0 -5915572.164 17295763.788 -17781070.432 10 0 59626 48600.00000 0 -6293371.276 15017156.771 -19626279.040 10 0 59626 49500.00000 0 -6886048.810 12574664.925 -21090003.283 10 0 59626 50400.00000 0 -7701845.598 10034124.485 -22143825.807 10 0 59626 51300.00000 0 -8736853.399 7463135.922 -22767302.517 10 0 59626 52200.00000 0 -9975015.503 4928440.635 -22948356.638 10 0 59626 53100.00000 0 -11388652.934 2493346.504 -22683509.959 10 0 59626 54000.00000 0 -12939494.740 215308.803 -21977947.180 10 0 59626 54900.00000 0 -14580169.734 -1856233.687 -20845412.406 10 0 59626 55800.00000 0 -16256097.619 -3681678.223 -19307939.945 10 0 59626 56700.00000 0 -17907700.787 -5232658.769 -17395424.673 10 0 59626 57600.00000 0 -19472844.506 -6492970.694 -15145040.207 10 0 59626 58500.00000 0 -20889403.547 -7458982.300 -12600516.047 10 0 59626 59400.00000 0 -22097847.865 -8139517.441 -9811287.573 10 0 59626 60300.00000 0 -23043739.034 -8555215.671 -6831535.219 10 0 59626 61200.00000 0 -23680032.627 -8737398.136 -3719131.529 10 0 59626 62100.00000 0 -23969089.861 -8726488.272 -534516.577 10 0 59626 63000.00000 0 -23884313.867 -8570055.002 2660476.326 10 0 59626 63900.00000 0 -23411341.688 -8320561.961 5803821.482 10 0 59626 64800.00000 0 -22548741.732 -8032918.623 8834504.745 10 0 59626 65700.00000 0 -21308187.167 -7761937.396 11693706.986 10 0 59626 66600.00000 0 -19714097.728 -7559804.626 14325943.944 10 0 59626 67500.00000 0 -17802764.621 -7473672.640 16680140.435 10 0 59626 68400.00000 0 -15620994.746 -7543474.782 18710618.277 10 0 59626 69300.00000 0 -13224330.478 -7800055.792 20377979.084 10 0 59626 70200.00000 0 -10674918.704 -8263696.616 21649865.298 10 0 59626 71100.00000 0 -8039117.211 -8943096.073 22501585.216 10 0 59626 72000.00000 0 -5384937.349 -9834852.696 22916590.363 10 0 59626 72900.00000 0 -2779428.385 -10923469.188 22886796.351 10 0 59626 73800.00000 0 -286111.280 -12181880.146 22412741.219 10 0 59626 74700.00000 0 2037432.374 -13572481.879 21503578.158 10 0 59626 75600.00000 0 4141717.107 -15048622.235 20176902.520 10 0 59626 76500.00000 0 5987167.256 -16556489.066 18458415.980 10 0 59626 77400.00000 0 7545512.920 -18037319.111 16381433.760 10 0 59626 78300.00000 0 8800710.874 -19429835.510 13986243.737 10 0 59626 79200.00000 0 9749352.754 -20672812.226 11319329.148 10 0 59626 80100.00000 0 10400544.169 -21707657.931 8432469.417 10 0 59626 81000.00000 0 10775260.580 -22480910.743 5381736.144 10 0 59626 81900.00000 0 10905207.794 -22946538.564 2226403.507 10 0 59626 82800.00000 0 10831235.811 -23067947.592 -972205.549 10 0 59626 83700.00000 0 10601373.793 -22819613.724 -4151914.655 10 0 59626 84600.00000 0 10268570.011 -22188267.232 -7250907.142 10 0 59626 85500.00000 0 9888233.179 -21173580.005 -10208932.642 99